Time,TemperatureF,DewpointF,PressureIn,WindDirection,WindDirectionDegrees,WindSpeedMPH,WindSpeedGustMPH,Humidity,HourlyPrecipIn,Conditions,Clouds,dailyrainin,SoftwareType,DateUTC
2013-02-17 00:03:00,28.2,11.0,30.07,SE,135,0.0,0.0,48,0.00,,,0.00,WUHU21623XXSP,2013-02-17 08:03:00,
2013-02-17 00:08:00,28.2,11.5,30.07,NE,45,0.0,0.0,49,0.00,,,0.00,WUHU21623XXSP,2013-02-17 08:08:00,
2013-02-17 00:13:00,28.6,11.9,30.06,ESE,112,0.0,0.0,49,0.00,,,0.00,WUHU21623XXSP,2013-02-17 08:13:00,
2013-02-17 00:18:00,28.6,11.9,30.06,SE,135,0.0,0.0,49,0.00,,,0.00,WUHU21623XXSP,2013-02-17 08:18:00,
2013-02-17 00:30:00,29.3,12.5,30.06,ENE,67,3.6,3.6,49,0.00,,,0.00,WUHU21623XXSP,2013-02-17 08:30:00,
2013-02-17 00:35:00,29.7,12.5,30.06,ENE,67,3.6,3.6,50,0.00,,,0.00,WUHU21623XXSP,2013-02-17 08:35:00,
2013-02-17 00:54:00,30.0,12.6,30.06,NW,315,0.0,0.0,48,0.00,,,0.00,WUHU21623XXSP,2013-02-17 08:54:00,
2013-02-17 00:59:00,30.0,12.6,30.06,North,0,0.0,0.0,48,0.00,,,0.00,WUHU21623XXSP,2013-02-17 08:59:00,
2013-02-17 01:04:00,30.0,12.6,30.06,North,0,0.0,0.0,48,0.00,,,0.00,WUHU21623XXSP,2013-02-17 09:04:00,
2013-02-17 01:13:00,28.9,11.7,30.06,ESE,112,0.0,0.0,48,0.00,,,0.00,WUHU21623XXSP,2013-02-17 09:13:00,
2013-02-17 01:18:00,28.8,12.0,30.06,SE,135,0.0,0.0,49,0.00,,,0.00,WUHU21623XXSP,2013-02-17 09:18:00,
2013-02-17 01:24:00,28.4,11.7,30.06,East,90,0.0,0.0,49,0.00,,,0.00,WUHU21623XXSP,2013-02-17 09:24:00,
2013-02-17 01:30:00,28.0,11.5,30.05,NNE,22,0.0,0.0,49,0.00,,,0.00,WUHU21623XXSP,2013-02-17 09:30:00,
2013-02-17 01:39:00,27.7,11.0,30.05,West,270,0.0,0.0,49,0.00,,,0.00,WUHU21623XXSP,2013-02-17 09:39:00,
2013-02-17 01:45:00,27.7,11.0,30.05,South,180,0.0,0.0,49,0.00,,,0.00,WUHU21623XXSP,2013-02-17 09:45:00,
2013-02-17 01:50:00,27.5,10.8,30.05,SE,135,0.0,0.0,49,0.00,,,0.00,WUHU21623XXSP,2013-02-17 09:50:00,
2013-02-17 01:58:00,27.1,10.9,30.05,North,0,0.0,0.0,50,0.00,,,0.00,WUHU21623XXSP,2013-02-17 09:58:00,
2013-02-17 02:03:00,27.1,10.9,30.05,SSE,157,1.3,1.3,50,0.00,,,0.00,WUHU21623XXSP,2013-02-17 10:03:00,
2013-02-17 02:08:00,26.8,10.8,30.05,SW,225,0.0,1.3,50,0.00,,,0.00,WUHU21623XXSP,2013-02-17 10:08:00,
2013-02-17 02:17:00,26.4,10.2,30.04,NE,45,0.0,0.0,50,0.00,,,0.00,WUHU21623XXSP,2013-02-17 10:17:00,
2013-02-17 02:26:00,26.2,10.5,30.04,East,90,0.0,0.0,51,0.00,,,0.00,WUHU21623XXSP,2013-02-17 10:26:00,
2013-02-17 02:31:00,26.2,10.5,30.04,SSE,157,0.0,0.0,51,0.00,,,0.00,WUHU21623XXSP,2013-02-17 10:31:00,
2013-02-17 02:44:00,25.9,10.2,30.03,SW,225,0.0,0.0,51,0.00,,,0.00,WUHU21623XXSP,2013-02-17 10:44:00,
2013-02-17 02:58:00,25.9,10.6,30.03,ESE,112,0.0,0.0,52,0.00,,,0.00,WUHU21623XXSP,2013-02-17 10:58:00,
2013-02-17 03:03:00,25.7,10.4,30.02,ESE,112,0.0,0.0,52,0.00,,,0.00,WUHU21623XXSP,2013-02-17 11:03:00,
2013-02-17 03:08:00,25.7,10.4,30.03,SSE,157,0.0,0.0,52,0.00,,,0.00,WUHU21623XXSP,2013-02-17 11:08:00,
2013-02-17 03:15:00,25.5,10.3,30.02,NNE,22,0.0,0.0,52,0.00,,,0.00,WUHU21623XXSP,2013-02-17 11:15:00,
2013-02-17 03:30:00,25.0,9.4,30.01,East,90,0.0,0.0,51,0.00,,,0.00,WUHU21623XXSP,2013-02-17 11:30:00,
2013-02-17 03:39:00,24.6,9.4,30.02,SW,225,0.0,0.0,52,0.00,,,0.00,WUHU21623XXSP,2013-02-17 11:39:00,
2013-02-17 03:44:00,24.6,9.4,30.02,North,0,0.0,0.0,52,0.00,,,0.00,WUHU21623XXSP,2013-02-17 11:44:00,
2013-02-17 03:49:00,24.4,9.3,30.02,ESE,112,0.0,0.0,52,0.00,,,0.00,WUHU21623XXSP,2013-02-17 11:49:00,
2013-02-17 03:54:00,24.1,8.9,30.01,NE,45,0.0,0.0,52,0.00,,,0.00,WUHU21623XXSP,2013-02-17 11:54:00,
2013-02-17 03:59:00,24.1,8.9,30.01,NW,315,0.0,0.0,52,0.00,,,0.00,WUHU21623XXSP,2013-02-17 11:59:00,
2013-02-17 04:04:00,24.1,8.9,30.01,NW,315,0.0,0.0,52,0.00,,,0.00,WUHU21623XXSP,2013-02-17 12:04:00,
2013-02-17 04:09:00,23.7,8.6,30.01,SE,135,0.0,0.0,52,0.00,,,0.00,WUHU21623XXSP,2013-02-17 12:09:00,
2013-02-17 04:14:00,23.7,9.0,30.02,SSW,202,3.8,3.8,53,0.00,,,0.00,WUHU21623XXSP,2013-02-17 12:14:00,
2013-02-17 04:22:00,23.5,8.8,30.02,ESE,112,0.0,0.0,53,0.00,,,0.00,WUHU21623XXSP,2013-02-17 12:22:00,
2013-02-17 04:27:00,23.5,9.2,30.02,NE,45,0.0,0.0,54,0.00,,,0.00,WUHU21623XXSP,2013-02-17 12:27:00,
2013-02-17 04:32:00,23.4,9.1,30.02,North,0,0.0,0.0,54,0.00,,,0.00,WUHU21623XXSP,2013-02-17 12:32:00,
2013-02-17 04:47:00,22.8,8.6,30.01,WNW,292,0.0,0.0,54,0.00,,,0.00,WUHU21623XXSP,2013-02-17 12:47:00,
2013-02-17 04:56:00,22.6,8.4,30.01,NE,45,0.0,0.0,54,0.00,,,0.00,WUHU21623XXSP,2013-02-17 12:56:00,
2013-02-17 05:01:00,22.5,8.2,30.01,NE,45,0.0,0.0,54,0.00,,,0.00,WUHU21623XXSP,2013-02-17 13:01:00,
2013-02-17 05:06:00,22.3,8.0,30.01,SE,135,0.0,0.0,54,0.00,,,0.00,WUHU21623XXSP,2013-02-17 13:06:00,
2013-02-17 05:11:00,22.1,7.9,30.01,SSE,157,0.0,0.0,54,0.00,,,0.00,WUHU21623XXSP,2013-02-17 13:11:00,
2013-02-17 05:16:00,21.9,7.7,30.02,NE,45,0.0,0.0,54,0.00,,,0.00,WUHU21623XXSP,2013-02-17 13:16:00,
2013-02-17 05:24:00,21.7,7.5,30.02,South,180,0.0,0.0,54,0.00,,,0.00,WUHU21623XXSP,2013-02-17 13:24:00,
2013-02-17 05:30:00,21.6,7.4,30.02,SSW,202,0.0,0.0,54,0.00,,,0.00,WUHU21623XXSP,2013-02-17 13:30:00,
2013-02-17 05:37:00,21.4,7.2,30.02,ESE,112,0.0,0.0,54,0.00,,,0.00,WUHU21623XXSP,2013-02-17 13:37:00,
2013-02-17 05:43:00,21.0,6.8,30.02,SE,135,0.0,0.0,55,0.00,,,0.00,WUHU21623XXSP,2013-02-17 13:43:00,
2013-02-17 05:52:00,20.8,7.1,30.03,WNW,292,0.0,0.0,55,0.00,,,0.00,WUHU21623XXSP,2013-02-17 13:52:00,
2013-02-17 05:57:00,20.8,7.1,30.03,North,0,0.0,0.0,55,0.00,,,0.00,WUHU21623XXSP,2013-02-17 13:57:00,
2013-02-17 06:02:00,20.8,7.1,30.03,North,0,0.0,0.0,55,0.00,,,0.00,WUHU21623XXSP,2013-02-17 14:02:00,
2013-02-17 06:07:00,20.7,6.9,30.03,South,180,0.0,0.0,55,0.00,,,0.00,WUHU21623XXSP,2013-02-17 14:07:00,
2013-02-17 06:12:00,20.8,7.5,30.03,SW,225,0.0,0.0,56,0.00,,,0.00,WUHU21623XXSP,2013-02-17 14:12:00,
2013-02-17 06:30:00,20.3,7.0,30.04,NW,315,0.0,0.0,56,0.00,,,0.00,WUHU21623XXSP,2013-02-17 14:30:00,
2013-02-17 06:35:00,20.3,7.0,30.04,ENE,67,0.0,0.0,56,0.00,,,0.00,WUHU21623XXSP,2013-02-17 14:35:00,
2013-02-17 06:45:00,19.9,6.6,30.03,SSE,157,0.0,0.0,56,0.00,,,0.00,WUHU21623XXSP,2013-02-17 14:45:00,
2013-02-17 06:50:00,19.9,6.6,30.04,WSW,247,0.0,0.0,56,0.00,,,0.00,WUHU21623XXSP,2013-02-17 14:50:00,
2013-02-17 06:55:00,19.8,6.9,30.04,ENE,67,0.0,0.0,57,0.00,,,0.00,WUHU21623XXSP,2013-02-17 14:55:00,
2013-02-17 07:00:00,19.8,6.9,30.04,WNW,292,1.3,1.3,57,0.00,,,0.00,WUHU21623XXSP,2013-02-17 15:00:00,
2013-02-17 07:05:00,19.6,6.9,30.04,NW,315,0.0,1.3,57,0.00,,,0.00,WUHU21623XXSP,2013-02-17 15:05:00,
2013-02-17 07:15:00,19.6,6.7,30.04,ESE,112,0.0,0.0,57,0.00,,,0.00,WUHU21623XXSP,2013-02-17 15:15:00,
2013-02-17 07:20:00,19.6,7.1,30.05,WNW,292,0.0,0.0,58,0.00,,,0.00,WUHU21623XXSP,2013-02-17 15:20:00,
2013-02-17 07:28:00,19.6,7.1,30.04,WNW,292,0.0,0.0,58,0.00,,,0.00,WUHU21623XXSP,2013-02-17 15:28:00,
2013-02-17 07:39:00,20.1,8.0,30.04,East,90,0.0,0.0,59,0.00,,,0.00,WUHU21623XXSP,2013-02-17 15:39:00,
2013-02-17 07:49:00,20.8,8.7,30.05,NNE,22,0.0,0.0,59,0.00,,,0.00,WUHU21623XXSP,2013-02-17 15:49:00,
2013-02-17 07:56:00,21.0,8.9,30.05,NNW,337,0.0,0.0,59,0.00,,,0.00,WUHU21623XXSP,2013-02-17 15:56:00,
2013-02-17 08:01:00,21.4,9.7,30.04,NNW,337,0.0,0.0,60,0.00,,,0.00,WUHU21623XXSP,2013-02-17 16:01:00,
2013-02-17 08:07:00,22.1,10.7,30.04,West,270,0.0,0.0,61,0.00,,,0.00,WUHU21623XXSP,2013-02-17 16:07:00,
2013-02-17 08:12:00,23.4,11.3,30.05,NW,315,0.0,0.0,62,0.00,,,0.00,WUHU21623XXSP,2013-02-17 16:12:00,
2013-02-17 08:17:00,24.4,13.6,30.04,SW,225,0.0,0.0,63,0.00,,,0.00,WUHU21623XXSP,2013-02-17 16:17:00,
2013-02-17 08:26:00,26.6,15.6,30.04,South,180,0.0,0.0,63,0.00,,,0.00,WUHU21623XXSP,2013-02-17 16:26:00,
2013-02-17 08:33:00,28.2,16.9,30.05,WNW,292,0.0,0.0,62,0.00,,,0.00,WUHU21623XXSP,2013-02-17 16:33:00,
2013-02-17 08:43:00,30.6,18.7,30.05,WNW,292,0.0,0.0,61,0.00,,,0.00,WUHU21623XXSP,2013-02-17 16:43:00,
2013-02-17 08:48:00,31.6,19.8,30.04,WNW,292,0.0,0.0,61,0.00,,,0.00,WUHU21623XXSP,2013-02-17 16:48:00,
2013-02-17 08:58:00,33.8,20.9,30.06,WNW,292,1.8,1.8,59,0.00,,,0.00,WUHU21623XXSP,2013-02-17 16:58:00,
2013-02-17 09:04:00,35.2,21.5,30.05,WNW,292,6.3,6.3,57,0.00,,,0.00,WUHU21623XXSP,2013-02-17 17:04:00,
2013-02-17 09:17:00,37.9,22.3,30.05,NW,315,6.9,6.9,53,0.00,,,0.00,WUHU21623XXSP,2013-02-17 17:17:00,
2013-02-17 09:24:00,39.0,22.4,30.05,NNW,337,9.2,9.2,51,0.00,,,0.00,WUHU21623XXSP,2013-02-17 17:24:00,
2013-02-17 09:52:00,42.1,23.7,30.05,NW,315,8.5,8.5,47,0.00,,,0.00,WUHU21623XXSP,2013-02-17 17:52:00,
2013-02-17 13:08:00,57.0,28.0,30.01,NNE,22,0.9,0.9,32,0.00,,,0.00,WUHU21623XXSP,2013-02-17 21:08:00,
2013-02-17 13:13:00,57.0,27.3,30.01,NNW,337,0.0,0.9,32,0.00,,,0.00,WUHU21623XXSP,2013-02-17 21:13:00,
2013-02-17 13:45:00,57.6,27.8,30.00,WNW,292,4.3,4.3,32,0.00,,,0.00,WUHU21623XXSP,2013-02-17 21:45:00,
2013-02-17 13:56:00,57.9,27.4,30.00,West,270,1.6,1.6,31,0.00,,,0.00,WUHU21623XXSP,2013-02-17 21:56:00,
2013-02-17 14:04:00,58.6,28.1,29.99,South,180,0.0,1.6,31,0.00,,,0.00,WUHU21623XXSP,2013-02-17 22:04:00,
2013-02-17 14:25:00,57.7,25.6,30.00,NNW,337,6.9,6.9,29,0.00,,,0.00,WUHU21623XXSP,2013-02-17 22:25:00,
2013-02-17 15:22:00,53.8,24.5,29.99,NW,315,5.8,5.8,32,0.00,,,0.00,WUHU21623XXSP,2013-02-17 23:22:00,
2013-02-17 15:27:00,53.4,24.2,29.99,NW,315,6.9,6.9,33,0.00,,,0.00,WUHU21623XXSP,2013-02-17 23:27:00,
2013-02-17 15:47:00,52.5,24.1,29.99,NNW,337,6.3,6.3,33,0.00,,,0.00,WUHU21623XXSP,2013-02-17 23:47:00,
2013-02-17 16:28:00,51.1,24.2,29.99,WNW,292,12.8,12.8,35,0.00,,,0.00,WUHU21623XXSP,2013-02-18 00:28:00,
2013-02-17 16:57:00,49.8,24.4,29.99,WNW,292,8.7,8.7,37,0.00,,,0.00,WUHU21623XXSP,2013-02-18 00:57:00,
2013-02-17 17:12:00,48.9,23.6,29.99,WNW,292,6.3,6.3,37,0.00,,,0.00,WUHU21623XXSP,2013-02-18 01:12:00,
2013-02-17 17:18:00,48.7,23.4,29.99,North,0,6.0,6.3,37,0.00,,,0.00,WUHU21623XXSP,2013-02-18 01:18:00,
2013-02-17 17:40:00,47.5,23.0,29.99,NNW,337,6.7,6.7,38,0.00,,,0.00,WUHU21623XXSP,2013-02-18 01:40:00,
2013-02-17 18:04:00,46.0,22.4,30.00,West,270,3.6,3.6,39,0.00,,,0.00,WUHU21623XXSP,2013-02-18 02:04:00,
2013-02-17 18:27:00,44.4,21.6,30.01,NNE,22,3.8,3.8,40,0.00,,,0.00,WUHU21623XXSP,2013-02-18 02:27:00,
2013-02-17 18:43:00,43.5,21.3,30.01,NE,45,2.5,2.5,41,0.00,,,0.00,WUHU21623XXSP,2013-02-18 02:43:00,
2013-02-17 19:02:00,42.4,20.3,30.01,NNE,22,3.1,3.1,41,0.00,,,0.00,WUHU21623XXSP,2013-02-18 03:02:00,
2013-02-17 19:14:00,41.9,19.8,30.02,ENE,67,3.6,3.6,41,0.00,,,0.00,WUHU21623XXSP,2013-02-18 03:14:00,
2013-02-17 19:21:00,41.7,19.7,30.03,NNE,22,0.0,3.6,41,0.00,,,0.00,WUHU21623XXSP,2013-02-18 03:21:00,
2013-02-17 19:44:00,40.8,18.3,30.03,West,270,0.0,0.0,40,0.00,,,0.00,WUHU21623XXSP,2013-02-18 03:44:00,
2013-02-17 19:53:00,39.9,17.5,30.03,WNW,292,6.0,6.0,40,0.00,,,0.00,WUHU21623XXSP,2013-02-18 03:53:00,
2013-02-17 19:59:00,39.4,17.6,30.04,NNW,337,8.1,8.1,41,0.00,,,0.00,WUHU21623XXSP,2013-02-18 03:59:00,
2013-02-17 20:13:00,37.9,16.4,30.04,NW,315,3.8,3.8,41,0.00,,,0.00,WUHU21623XXSP,2013-02-18 04:13:00,
2013-02-17 20:18:00,37.9,16.3,30.04,WNW,292,3.8,3.8,41,0.00,,,0.00,WUHU21623XXSP,2013-02-18 04:18:00,
2013-02-17 20:31:00,36.7,15.1,30.04,NW,315,0.0,0.0,41,0.00,,,0.00,WUHU21623XXSP,2013-02-18 04:31:00,
2013-02-17 20:51:00,35.4,14.0,30.05,NW,315,0.7,0.7,41,0.00,,,0.00,WUHU21623XXSP,2013-02-18 04:51:00,
2013-02-17 20:57:00,34.9,13.8,30.05,North,0,0.0,0.7,41,0.00,,,0.00,WUHU21623XXSP,2013-02-18 04:57:00,
2013-02-17 21:00:00,34.9,13.8,30.05,North,0,0.0,0.7,41,0.00,,,0.00,WUHU21623XXSP,2013-02-18 05:00:00,
2013-02-17 21:19:00,34.7,12.8,30.06,WNW,292,0.0,0.0,40,0.00,,,0.00,WUHU21623XXSP,2013-02-18 05:19:00,
2013-02-17 21:20:00,34.7,12.8,30.06,WNW,292,0.0,0.0,40,0.00,,,0.00,WUHU21623XXSP,2013-02-18 05:20:00,
2013-02-17 21:27:00,34.5,12.7,30.06,NW,315,0.0,0.0,40,0.00,,,0.00,WUHU21623XXSP,2013-02-18 05:27:00,
2013-02-17 21:50:00,33.4,11.7,30.06,West,270,0.0,0.0,41,0.00,,,0.00,WUHU21623XXSP,2013-02-18 05:50:00,
2013-02-17 22:14:00,32.2,10.6,30.06,ENE,67,0.0,0.0,40,0.00,,,0.00,WUHU21623XXSP,2013-02-18 06:14:00,
2013-02-17 22:21:00,31.8,10.7,30.06,NE,45,0.0,0.0,41,0.00,,,0.00,WUHU21623XXSP,2013-02-18 06:21:00,
2013-02-17 22:26:00,31.6,10.6,30.07,ENE,67,0.0,0.0,41,0.00,,,0.00,WUHU21623XXSP,2013-02-18 06:26:00,
2013-02-17 23:19:00,28.2,8.5,30.07,ENE,67,0.0,0.0,43,0.00,,,0.00,WUHU21623XXSP,2013-02-18 07:19:00,
2013-02-17 23:52:00,27.5,8.8,30.07,SE,135,0.0,0.0,45,0.00,,,0.00,WUHU21623XXSP,2013-02-18 07:52:00,
2013-02-17 23:57:00,27.5,8.8,30.07,SE,135,0.0,0.0,45,0.00,,,0.00,WUHU21623XXSP,2013-02-18 07:57:00,